Regional Weather Roundup
Issued by NWS

Home | Current Version | Previous Version | Graphics & Text | Print | Product List | Glossary On
Versions: 1 2 3 4 5 6 7 8 9 10 11 12 13 14 15 16 17 18 19 20 21 22 23 24 25 26 27 28 29 30 31 32 33 34 35 36 37 38 39 40 41 42 43 44 45 46 47 48 49 50
000
ASUS43 KIND 070309
RWRIN

WEATHER ROUNDUP FOR INDIANA
NATIONAL WEATHER SERVICE INDIANAPOLIS IN
1000 PM EST TUE DEC 06 2016

NOTE: "FAIR" INDICATES FEW OR NO CLOUDS BELOW 12,000 FEET WITH NO
SIGNIFICANT WEATHER AND/OR OBSTRUCTIONS TO VISIBILITY.

* - STATION DOES NOT REPORT WEATHER SUCH AS PRECIPITATION OR FOG.

+ - STATION NOT QUALITY CONTROLLED BY THE NATIONAL WEATHER SERVICE.
    USE DATA WITH CAUTION...ESPECIALLY DEWPOINT AND RELATIVE
    HUMIDITY OBSERVATIONS.

INZ001>003-010>013-019-020-070400-
NORTHWEST INDIANA

CITY           SKY/WX    TMP DP  RH WIND       PRES   REMARKS
GARY /AIRPORT/ CLEAR     32  25  74 W24       29.96R WCI  19
KNOX *+        CLEAR     30   9  40 W13G20    29.95R WCI  20
LA PORTE +     CLEAR     32  29  88 W14G23    29.94R WCI  22
MICHIGAN CITY+ PTCLDY    32  25  74 W14G22    29.94R WCI  22
MONTICELLO +   CLEAR     32  24  72 W13       29.97R WCI  22
RENSSELAER +     N/A     32  28  86 W16G24    29.98R WCI  21
VALPARAISO     CLEAR     31  22  69 W21G30    29.95R WCI  18

$$

LMZ046-743>745-070400-
SOUTHERN LAKE MICHIGAN

STATION/POSITION TIME  TEMP    WIND        PRES    WAVE
                       AIR SEA DIR/SP/G            HT
                 (UTC) (F)     (DEG/KT/KT) (MB)    (FT)
BURNS HARBOR     0219   34     260/ 28     1013.5R

$$

INZ004-005-014>016-021>024-070400-
NORTH CENTRAL INDIANA

CITY           SKY/WX    TMP DP  RH WIND       PRES   REMARKS
GOSHEN         MOCLDY    32  26  78 W15       29.91R WCI  22
LOGANSPORT +   CLEAR     32  28  86 W12G17    29.97R WCI  23
PERU/GRISSOM   CLEAR     32  28  86 W13       29.94R WCI  22
ROCHESTER +    CLEAR     34  28  80 W10G20    29.95R WCI  26
SOUTH BEND     PTCLDY    30  24  78 W15       29.91R WCI  19
WARSAW +       CLOUDY    32  27  80 W15G23    29.92R WCI  22

$$

INZ006>009-017-018-025>027-070400-
NORTHEAST INDIANA

CITY           SKY/WX    TMP DP  RH WIND       PRES   REMARKS
ANGOLA *+      CLOUDY    34  32  93 W12       29.85R WCI  25
AUBURN +       CLOUDY    34  30  86 W14G20    29.89R WCI  24
FORT WAYNE     MOCLDY    33  28  81 W14       29.91R WCI  23
HUNTINGTON +   CLOUDY    33  28  84 W9G21     29.91S WCI  25
KENDALLVILLE + CLOUDY    33  30  89 W16G22    29.88R WCI  23

$$

INZ028-029-035-036-043>045-051>053-070400-
WEST CENTRAL INDIANA

CITY           SKY/WX    TMP DP  RH WIND       PRES   REMARKS
CRAWFORDSVL +  PTCLDY    31  31  99 W10       30.00R WCI  22
LAFAYETTE      CLEAR     31  29  92 W8        29.99R WCI  23
TERRE HAUTE    CLEAR     34  28  79 W5        30.03R WCI  30

$$

INZ030>032-037>040-046>048-054>057-064-065-070400-
CENTRAL INDIANA

CITY           SKY/WX    TMP DP  RH WIND       PRES   REMARKS
CP ATTERBURY + MOCLDY    34  32  93 W3        30.01R
COLUMBUS       PTCLDY    34  34 100 W9        30.01R WCI  26
FISHERS *+     PTCLDY    32  32 100 NW9       29.98R WCI  24
FRANKFORT +    MOCLDY    34  31  90 W10       30.00R WCI  26
GREENWOOD *+   PTCLDY    35  32  89 W3        29.99R
INDIANAPOLIS   PTCLDY    32  29  88 W8        29.99R WCI  25
-EAGLE CREEK   CLEAR     35  30  82 W9        29.97R WCI  28
KOKOMO +       PTCLDY    32  29  88 W15       29.96R WCI  22
MARION +       MOCLDY    32  29  88 W16       29.96R FOG     WCI  21
MT COMFORT *+  CLEAR     32  30  93 W9        29.98R WCI  24
SHELBYVILLE    PTCLDY    35  29  78 W8        29.98R WCI  29
ZIONSVILLE +   PTCLDY    32  29  89 W8        29.98R WCI  25

$$

INZ033-034-041-042-049-050-058-059-070400-
EAST CENTRAL INDIANA

CITY           SKY/WX    TMP DP  RH WIND       PRES   REMARKS
MUNCIE         MOCLDY    34  29  82 W10       29.95R WCI  26

$$

INZ060-061-067>069-081>083-085>088-070400-
SOUTHWEST INDIANA

CITY           SKY/WX    TMP DP  RH WIND       PRES   REMARKS
EVANSVILLE     PTCLDY    38  33  82 NW3       30.07R
HUNTINGBURG *+ PTCLDY    37  34  87 NW3       30.05R
WASHINGTON +   PTCLDY    35  35  98 NW5       30.04R WCI  31

$$

INZ062-063-066-070>080-084-089>092-070400-
SOUTH CENTRAL AND SOUTHEAST INDIANA

CITY           SKY/WX    TMP DP  RH WIND       PRES   REMARKS
BLOOMINGTON    MOCLDY    36  30  79 NW9G18    30.02R
MADISON *+     MOCLDY    37  32  81 NW7       30.03R
NORTH VERNON + CLOUDY    37  37 100 W6        30.00R
SEYMOUR +      MOCLDY    36  32  87 W8        30.02R

$$





USA.gov is the U.S. government's official web portal to all federal, state and local government web resources and services.